Time,TemperatureF,DewpointF,PressureIn,WindDirection,WindDirectionDegrees,WindSpeedMPH,WindSpeedGustMPH,Humidity,HourlyPrecipIn,Conditions,Clouds,dailyrainin,SoftwareType,DateUTC
2013-04-10 00:00:00,45.0,44.0,30.01,ESE,110,14.0,15.0,94,-99.99,,,-99.99,,2013-04-10 04:00:00,
2013-04-10 00:22:00,45.0,44.0,30.01,ESE,110,14.0,15.0,94,-99.99,,,-99.99,,2013-04-10 04:22:00,
2013-04-10 00:32:00,45.0,44.0,30.01,ESE,110,14.0,15.0,94,-99.99,,,-99.99,,2013-04-10 04:32:00,
2013-04-10 00:42:00,45.0,44.0,30.01,ESE,110,14.0,15.0,94,-99.99,,,-99.99,,2013-04-10 04:42:00,
2013-04-10 00:52:00,45.0,44.0,30.01,ESE,110,14.0,15.0,94,-99.99,,,-99.99,,2013-04-10 04:52:00,
2013-04-10 01:00:00,45.0,43.0,29.98,East,100,15.0,16.0,95,-99.99,,,-99.99,,2013-04-10 05:00:00,
2013-04-10 01:22:00,45.0,43.0,29.98,East,100,15.0,16.0,95,-99.99,,,-99.99,,2013-04-10 05:22:00,
2013-04-10 01:32:00,45.0,43.0,29.98,East,100,15.0,16.0,95,-99.99,,,-99.99,,2013-04-10 05:32:00,
2013-04-10 01:42:00,45.0,43.0,29.98,East,100,15.0,16.0,95,-99.99,,,-99.99,,2013-04-10 05:42:00,
2013-04-10 01:52:00,45.0,43.0,29.98,East,100,15.0,16.0,95,-99.99,,,-99.99,,2013-04-10 05:52:00,
2013-04-10 02:00:00,44.0,43.0,29.95,ESE,120,13.0,14.0,95,-99.99,,,-99.99,,2013-04-10 06:00:00,
2013-04-10 02:21:00,44.0,43.0,29.95,ESE,120,13.0,14.0,95,-99.99,,,-99.99,,2013-04-10 06:21:00,
2013-04-10 02:31:00,44.0,43.0,29.95,ESE,120,13.0,14.0,95,-99.99,,,-99.99,,2013-04-10 06:31:00,
2013-04-10 02:41:00,44.0,43.0,29.95,ESE,120,13.0,14.0,95,-99.99,,,-99.99,,2013-04-10 06:41:00,
2013-04-10 02:52:00,44.0,43.0,29.95,ESE,120,13.0,14.0,95,-99.99,,,-99.99,,2013-04-10 06:52:00,
2013-04-10 03:00:00,44.0,43.0,29.91,East,90,14.0,15.0,95,-99.99,,,-99.99,,2013-04-10 07:00:00,
2013-04-10 03:21:00,44.0,43.0,29.91,East,90,14.0,15.0,95,-99.99,,,-99.99,,2013-04-10 07:21:00,
2013-04-10 03:31:00,44.0,43.0,29.91,East,90,14.0,15.0,95,-99.99,,,-99.99,,2013-04-10 07:31:00,
2013-04-10 03:41:00,44.0,43.0,29.91,East,90,14.0,15.0,95,-99.99,,,-99.99,,2013-04-10 07:41:00,
2013-04-10 03:52:00,44.0,43.0,29.91,East,90,14.0,15.0,95,-99.99,,,-99.99,,2013-04-10 07:52:00,
2013-04-10 04:00:00,46.0,43.0,29.93,NNE,20,22.0,23.0,90,-99.99,,,-99.99,,2013-04-10 08:00:00,
2013-04-10 04:21:00,46.0,43.0,29.93,NNE,20,22.0,23.0,90,-99.99,,,-99.99,,2013-04-10 08:21:00,
2013-04-10 04:31:00,46.0,43.0,29.93,NNE,20,22.0,23.0,90,-99.99,,,-99.99,,2013-04-10 08:31:00,
2013-04-10 04:42:00,46.0,43.0,29.93,NNE,20,22.0,23.0,90,-99.99,,,-99.99,,2013-04-10 08:42:00,
2013-04-10 04:51:00,46.0,43.0,29.93,NNE,20,22.0,23.0,90,-99.99,,,-99.99,,2013-04-10 08:51:00,
2013-04-10 05:00:00,45.0,44.0,29.95,NNE,30,16.0,17.0,94,-99.99,,,-99.99,,2013-04-10 09:00:00,
2013-04-10 05:21:00,45.0,44.0,29.95,NNE,30,16.0,17.0,94,-99.99,,,-99.99,,2013-04-10 09:21:00,
2013-04-10 05:32:00,45.0,44.0,29.95,NNE,30,16.0,17.0,94,-99.99,,,-99.99,,2013-04-10 09:32:00,
2013-04-10 05:42:00,45.0,44.0,29.95,NNE,30,16.0,17.0,94,-99.99,,,-99.99,,2013-04-10 09:42:00,
2013-04-10 05:52:00,45.0,44.0,29.95,NNE,30,16.0,17.0,94,-99.99,,,-99.99,,2013-04-10 09:52:00,
2013-04-10 06:00:00,44.0,43.0,29.87,East,80,21.0,24.0,95,-99.99,,,-99.99,,2013-04-10 10:00:00,
2013-04-10 06:23:00,44.0,43.0,29.87,East,80,21.0,24.0,95,-99.99,,,-99.99,,2013-04-10 10:23:00,
2013-04-10 06:32:00,44.0,43.0,29.87,East,80,21.0,24.0,95,-99.99,,,-99.99,,2013-04-10 10:32:00,
2013-04-10 06:42:00,44.0,43.0,29.87,East,80,21.0,24.0,95,-99.99,,,-99.99,,2013-04-10 10:42:00,
2013-04-10 06:52:00,44.0,43.0,29.87,East,80,21.0,24.0,95,-99.99,,,-99.99,,2013-04-10 10:52:00,
2013-04-10 07:00:00,45.0,43.0,29.89,East,90,10.0,10.0,91,-99.99,,,-99.99,,2013-04-10 11:00:00,
2013-04-10 07:22:00,45.0,43.0,29.89,East,90,10.0,10.0,91,-99.99,,,-99.99,,2013-04-10 11:22:00,
2013-04-10 07:31:00,45.0,43.0,29.89,East,90,10.0,10.0,91,-99.99,,,-99.99,,2013-04-10 11:31:00,
2013-04-10 07:42:00,45.0,43.0,29.89,East,90,10.0,10.0,91,-99.99,,,-99.99,,2013-04-10 11:42:00,
2013-04-10 07:52:00,45.0,43.0,29.89,East,90,10.0,10.0,91,-99.99,,,-99.99,,2013-04-10 11:52:00,
2013-04-10 08:00:00,45.0,43.0,29.92,NNE,30,14.0,14.0,92,-99.99,,,-99.99,,2013-04-10 12:00:00,
2013-04-10 08:21:00,45.0,43.0,29.92,NNE,30,14.0,14.0,92,-99.99,,,-99.99,,2013-04-10 12:21:00,
2013-04-10 08:32:00,45.0,43.0,29.92,NNE,30,14.0,14.0,92,-99.99,,,-99.99,,2013-04-10 12:32:00,
2013-04-10 08:42:00,45.0,43.0,29.92,NNE,30,14.0,14.0,92,-99.99,,,-99.99,,2013-04-10 12:42:00,
2013-04-10 08:51:00,45.0,43.0,29.92,NNE,30,14.0,14.0,92,-99.99,,,-99.99,,2013-04-10 12:51:00,
2013-04-10 09:00:00,46.0,44.0,29.95,North,360,8.0,9.0,92,-99.99,,,-99.99,,2013-04-10 13:00:00,
2013-04-10 09:21:00,46.0,44.0,29.95,North,360,8.0,9.0,92,-99.99,,,-99.99,,2013-04-10 13:21:00,
2013-04-10 09:31:00,46.0,44.0,29.95,North,360,8.0,9.0,92,-99.99,,,-99.99,,2013-04-10 13:31:00,
2013-04-10 09:41:00,46.0,44.0,29.95,North,360,8.0,9.0,92,-99.99,,,-99.99,,2013-04-10 13:41:00,
2013-04-10 09:52:00,46.0,44.0,29.95,North,360,8.0,9.0,92,-99.99,,,-99.99,,2013-04-10 13:52:00,
2013-04-10 10:00:00,48.0,45.0,29.94,NNE,20,13.0,13.0,89,-99.99,,,-99.99,,2013-04-10 14:00:00,
2013-04-10 10:21:00,48.0,45.0,29.94,NNE,20,13.0,13.0,89,-99.99,,,-99.99,,2013-04-10 14:21:00,
2013-04-10 10:41:00,48.0,45.0,29.94,NNE,20,13.0,13.0,89,-99.99,,,-99.99,,2013-04-10 14:41:00,
2013-04-10 10:51:00,48.0,45.0,29.94,NNE,20,13.0,13.0,89,-99.99,,,-99.99,,2013-04-10 14:51:00,
2013-04-10 11:00:00,49.0,47.0,29.95,NNE,30,6.0,6.0,91,-99.99,,,-99.99,,2013-04-10 15:00:00,
2013-04-10 11:21:00,49.0,47.0,29.95,NNE,30,6.0,6.0,91,-99.99,,,-99.99,,2013-04-10 15:21:00,
2013-04-10 11:32:00,49.0,47.0,29.95,NNE,30,6.0,6.0,91,-99.99,,,-99.99,,2013-04-10 15:32:00,
2013-04-10 11:42:00,49.0,47.0,29.95,NNE,30,6.0,6.0,91,-99.99,,,-99.99,,2013-04-10 15:42:00,
2013-04-10 11:52:00,49.0,47.0,29.95,NNE,30,6.0,6.0,91,-99.99,,,-99.99,,2013-04-10 15:52:00,
2013-04-10 12:00:00,52.0,48.0,29.97,North,350,6.0,6.0,85,-99.99,,,-99.99,,2013-04-10 16:00:00,
2013-04-10 12:22:00,52.0,48.0,29.97,North,350,6.0,6.0,85,-99.99,,,-99.99,,2013-04-10 16:22:00,
2013-04-10 12:32:00,52.0,48.0,29.97,North,350,6.0,6.0,85,-99.99,,,-99.99,,2013-04-10 16:32:00,
2013-04-10 12:42:00,52.0,48.0,29.97,North,350,6.0,6.0,85,-99.99,,,-99.99,,2013-04-10 16:42:00,
2013-04-10 12:52:00,52.0,48.0,29.97,North,350,6.0,6.0,85,-99.99,,,-99.99,,2013-04-10 16:52:00,
2013-04-10 13:22:00,51.0,46.0,29.96,East,100,1.0,2.0,82,-99.99,,,-99.99,,2013-04-10 17:22:00,
2013-04-10 13:32:00,51.0,46.0,29.96,East,100,1.0,2.0,82,-99.99,,,-99.99,,2013-04-10 17:32:00,
2013-04-10 13:52:00,51.0,46.0,29.96,East,100,1.0,2.0,82,-99.99,,,-99.99,,2013-04-10 17:52:00,
2013-04-10 14:00:00,49.0,44.0,29.96,ESE,120,6.0,6.0,83,-99.99,,,-99.99,,2013-04-10 18:00:00,
2013-04-10 14:32:00,49.0,44.0,29.96,ESE,120,6.0,6.0,83,-99.99,,,-99.99,,2013-04-10 18:32:00,
2013-04-10 14:42:00,49.0,44.0,29.96,ESE,120,6.0,6.0,83,-99.99,,,-99.99,,2013-04-10 18:42:00,
2013-04-10 14:52:00,49.0,44.0,29.96,ESE,120,6.0,6.0,83,-99.99,,,-99.99,,2013-04-10 18:52:00,
2013-04-10 15:00:00,49.0,45.0,29.96,East,100,5.0,6.0,85,-99.99,,,-99.99,,2013-04-10 19:00:00,
2013-04-10 15:21:00,49.0,45.0,29.96,East,100,5.0,6.0,85,-99.99,,,-99.99,,2013-04-10 19:21:00,
2013-04-10 15:31:00,49.0,45.0,29.96,East,100,5.0,6.0,85,-99.99,,,-99.99,,2013-04-10 19:31:00,
2013-04-10 15:41:00,49.0,45.0,29.96,East,100,5.0,6.0,85,-99.99,,,-99.99,,2013-04-10 19:41:00,
2013-04-10 15:52:00,49.0,45.0,29.96,East,100,5.0,6.0,85,-99.99,,,-99.99,,2013-04-10 19:52:00,
2013-04-10 16:21:00,45.0,44.0,29.92,SE,130,14.0,14.0,95,-99.99,,,-99.99,,2013-04-10 20:21:00,
2013-04-10 16:31:00,45.0,44.0,29.92,SE,130,14.0,14.0,95,-99.99,,,-99.99,,2013-04-10 20:31:00,
2013-04-10 16:41:00,45.0,44.0,29.92,SE,130,14.0,14.0,95,-99.99,,,-99.99,,2013-04-10 20:41:00,
2013-04-10 16:51:00,45.0,44.0,29.92,SE,130,14.0,14.0,95,-99.99,,,-99.99,,2013-04-10 20:51:00,
2013-04-10 17:00:00,44.0,43.0,29.91,SE,130,21.0,21.0,95,-99.99,,,-99.99,,2013-04-10 21:00:00,
2013-04-10 17:21:00,44.0,43.0,29.91,SE,130,21.0,21.0,95,-99.99,,,-99.99,,2013-04-10 21:21:00,
2013-04-10 17:32:00,44.0,43.0,29.91,SE,130,21.0,21.0,95,-99.99,,,-99.99,,2013-04-10 21:32:00,
2013-04-10 17:42:00,44.0,43.0,29.91,SE,130,21.0,21.0,95,-99.99,,,-99.99,,2013-04-10 21:42:00,
2013-04-10 17:52:00,44.0,43.0,29.91,SE,130,21.0,21.0,95,-99.99,,,-99.99,,2013-04-10 21:52:00,
2013-04-10 18:00:00,44.0,43.0,29.92,SE,140,20.0,21.0,96,-99.99,,,-99.99,,2013-04-10 22:00:00,
2013-04-10 18:22:00,44.0,43.0,29.92,SE,140,20.0,21.0,96,-99.99,,,-99.99,,2013-04-10 22:22:00,
2013-04-10 18:32:00,44.0,43.0,29.92,SE,140,20.0,21.0,96,-99.99,,,-99.99,,2013-04-10 22:32:00,
2013-04-10 18:42:00,44.0,43.0,29.92,SE,140,20.0,21.0,96,-99.99,,,-99.99,,2013-04-10 22:42:00,
2013-04-10 18:52:00,44.0,43.0,29.92,SE,140,20.0,21.0,96,-99.99,,,-99.99,,2013-04-10 22:52:00,
2013-04-10 19:00:00,43.0,43.0,29.93,ESE,120,15.0,16.0,100,-99.99,,,-99.99,,2013-04-10 23:00:00,
2013-04-10 19:22:00,43.0,43.0,29.93,ESE,120,15.0,16.0,100,-99.99,,,-99.99,,2013-04-10 23:22:00,
2013-04-10 19:32:00,43.0,43.0,29.93,ESE,120,15.0,16.0,100,-99.99,,,-99.99,,2013-04-10 23:32:00,
2013-04-10 19:41:00,43.0,43.0,29.93,ESE,120,15.0,16.0,100,-99.99,,,-99.99,,2013-04-10 23:41:00,
2013-04-10 19:52:00,43.0,43.0,29.93,ESE,120,15.0,16.0,100,-99.99,,,-99.99,,2013-04-10 23:52:00,
2013-04-10 20:00:00,42.0,42.0,29.88,ESE,120,18.0,21.0,99,-99.99,,,-99.99,,2013-04-11 00:00:00,
2013-04-10 20:21:00,42.0,42.0,29.88,ESE,120,18.0,21.0,99,-99.99,,,-99.99,,2013-04-11 00:21:00,
2013-04-10 20:31:00,42.0,42.0,29.88,ESE,120,18.0,21.0,99,-99.99,,,-99.99,,2013-04-11 00:31:00,
2013-04-10 20:41:00,42.0,42.0,29.88,ESE,120,18.0,21.0,99,-99.99,,,-99.99,,2013-04-11 00:41:00,
2013-04-10 20:51:00,42.0,42.0,29.88,ESE,120,18.0,21.0,99,-99.99,,,-99.99,,2013-04-11 00:51:00,
2013-04-10 21:00:00,42.0,42.0,29.88,SE,130,17.0,20.0,99,-99.99,,,-99.99,,2013-04-11 01:00:00,
2013-04-10 21:21:00,42.0,42.0,29.88,SE,130,17.0,20.0,99,-99.99,,,-99.99,,2013-04-11 01:21:00,
2013-04-10 21:31:00,42.0,42.0,29.88,SE,130,17.0,20.0,99,-99.99,,,-99.99,,2013-04-11 01:31:00,
2013-04-10 21:41:00,42.0,42.0,29.88,SE,130,17.0,20.0,99,-99.99,,,-99.99,,2013-04-11 01:41:00,
2013-04-10 21:52:00,42.0,42.0,29.88,SE,130,17.0,20.0,99,-99.99,,,-99.99,,2013-04-11 01:52:00,
2013-04-10 22:00:00,42.0,42.0,29.88,ESE,120,16.0,16.0,100,-99.99,,,-99.99,,2013-04-11 02:00:00,
2013-04-10 22:31:00,42.0,42.0,29.88,ESE,120,16.0,16.0,100,-99.99,,,-99.99,,2013-04-11 02:31:00,
2013-04-10 22:41:00,42.0,42.0,29.88,ESE,120,16.0,16.0,100,-99.99,,,-99.99,,2013-04-11 02:41:00,
2013-04-10 22:52:00,42.0,42.0,29.88,ESE,120,16.0,16.0,100,-99.99,,,-99.99,,2013-04-11 02:52:00,
2013-04-10 23:00:00,42.0,42.0,29.88,SE,130,10.0,11.0,100,-99.99,,,-99.99,,2013-04-11 03:00:00,
2013-04-10 23:21:00,42.0,42.0,29.88,SE,130,10.0,11.0,100,-99.99,,,-99.99,,2013-04-11 03:21:00,
2013-04-10 23:32:00,42.0,42.0,29.88,SE,130,10.0,11.0,100,-99.99,,,-99.99,,2013-04-11 03:32:00,
2013-04-10 23:42:00,42.0,42.0,29.88,SE,130,10.0,11.0,100,-99.99,,,-99.99,,2013-04-11 03:42:00,
2013-04-10 23:53:00,42.0,42.0,29.88,SE,130,10.0,11.0,100,-99.99,,,-99.99,,2013-04-11 03:53:00,